When you browse on this site, cookies collect data to enhance your experience and personalize the content and advertising you see.
Visit our Privacy Policy to learn more. By continuing to use the site, you agree to this use of cookies and data.
  • In United Kingdom
  • List of Countries
  • For 7 days
  • Water Temperature
  • Satellite Maps
  • Weather Map
  • Weather Widgets
  • user-avatar
    Login

    Hourly Weather São Paulo

    Today, 21 January, Monday

    Time Temperature Precipitation Wind Pressure Humidity
    00:00 +25°C° 0.8 mm 1 mps 699 mmHg 83%
    01:00 +25°C° 0.2 mm 1 mps 699 mmHg 83%
    02:00 +25°C° 0.2 mm 1 mps 699 mmHg 82%
    03:00 +25°C° 0 mm 1 mps 699 mmHg 82%
    04:00 +25°C° 0 mm 1 mps 699 mmHg 82%
    05:00 +24°C° 0 mm 1 mps 699 mmHg 81%
    06:00 +24°C° 0 mm 2 mps 698 mmHg 80%
    07:00 +26°C° 0 mm 2 mps 699 mmHg 73%
    08:00 +28°C° 0 mm 3 mps 700 mmHg 65%
    09:00 +31°C° 0 mm 2 mps 700 mmHg 55%
    10:00 +33°C° 0.4 mm 3 mps 700 mmHg 50%
    11:00 +34°C° 0.4 mm 3 mps 700 mmHg 46%
    12:00 +35°C° 0.4 mm 4 mps 700 mmHg 42%
    13:00 +35°C° 0.5 mm 4 mps 700 mmHg 43%
    14:00 +35°C° 0.5 mm 4 mps 700 mmHg 44%
    15:00 +35°C° 0.5 mm 4 mps 700 mmHg 44%
    16:00 +35°C° 0.3 mm 3 mps 699 mmHg 47%
    17:00 +34°C° 0.3 mm 2 mps 699 mmHg 50%
    18:00 +32°C° 0.3 mm 2 mps 699 mmHg 53%
    19:00 +31°C° 0.1 mm 1 mps 699 mmHg 57%
    20:00 +30°C° 0.1 mm 1 mps 700 mmHg 60%
    21:00 +27°C° 0.1 mm 0 mps 700 mmHg 64%
    22:00 +27°C° 0.4 mm 0 mps 700 mmHg 66%
    23:00 +28°C° 0.4 mm 1 mps 700 mmHg 67%

    Tomorrow, 22 January, Tuesday

    Time Temperature Precipitation Wind Pressure Humidity
    00:00 +28°C° 0.4 mm 1 mps 700 mmHg 69%
    01:00 +27°C° 0.2 mm 1 mps 700 mmHg 70%
    02:00 +27°C° 0.2 mm 1 mps 699 mmHg 72%
    03:00 +27°C° 0.2 mm 1 mps 699 mmHg 73%
    04:00 +26°C° 0.2 mm 1 mps 699 mmHg 74%
    05:00 +26°C° 0.2 mm 1 mps 699 mmHg 75%
    06:00 +26°C° 0.2 mm 1 mps 699 mmHg 77%
    07:00 +27°C° 0.4 mm 1 mps 700 mmHg 71%
    08:00 +29°C° 0.4 mm 2 mps 700 mmHg 65%
    09:00 +30°C° 0.4 mm 2 mps 701 mmHg 60%
    10:00 +31°C° 0.8 mm 2 mps 701 mmHg 57%
    11:00 +32°C° 0.8 mm 2 mps 701 mmHg 54%
    12:00 +34°C° 0.8 mm 2 mps 701 mmHg 52%
    13:00 +32°C° 1.6 mm 2 mps 700 mmHg 55%
    14:00 +33°C° 1.6 mm 3 mps 700 mmHg 58%
    15:00 +31°C° 1.6 mm 3 mps 700 mmHg 61%
    16:00 +30°C° 0.9 mm 3 mps 699 mmHg 65%
    17:00 +29°C° 0.9 mm 3 mps 699 mmHg 68%
    18:00 +28°C° 0.9 mm 3 mps 699 mmHg 71%
    19:00 +28°C° 0.2 mm 3 mps 699 mmHg 74%
    20:00 +27°C° 0.2 mm 3 mps 700 mmHg 76%
    21:00 +26°C° 0.2 mm 2 mps 700 mmHg 79%
    22:00 +26°C° 0.1 mm 2 mps 700 mmHg 79%
    23:00 +26°C° 0.1 mm 2 mps 700 mmHg 79%

    Day after tomorrow, 23 January, Wednesday

    Time Temperature Precipitation Wind Pressure Humidity
    00:00 +25°C° 0.1 mm 1 mps 700 mmHg 80%
    01:00 +25°C° 0 mm 2 mps 700 mmHg 80%
    02:00 +25°C° 0 mm 2 mps 699 mmHg 81%
    03:00 +25°C° 0 mm 2 mps 698 mmHg 82%
    04:00 +24°C° 0 mm 1 mps 699 mmHg 83%
    05:00 +24°C° 0 mm 1 mps 699 mmHg 83%
    06:00 +24°C° 0 mm 1 mps 699 mmHg 84%
    07:00 +26°C° 0 mm 1 mps 700 mmHg 76%
    08:00 +27°C° 0 mm 1 mps 700 mmHg 69%
    09:00 +29°C° 0 mm 2 mps 701 mmHg 61%
    10:00 +31°C° 0 mm 1 mps 701 mmHg 55%
    11:00 +33°C° 0 mm 1 mps 702 mmHg 49%
    12:00 +35°C° 0 mm 1 mps 702 mmHg 42%
    13:00 +34°C° 0.2 mm 1 mps 701 mmHg 46%
    14:00 +34°C° 0.2 mm 2 mps 700 mmHg 49%
    15:00 +34°C° 0.2 mm 2 mps 699 mmHg 52%
    16:00 +32°C° 0.9 mm 2 mps 699 mmHg 57%
    17:00 +31°C° 0.9 mm 2 mps 699 mmHg 61%
    18:00 +30°C° 0.9 mm 2 mps 699 mmHg 66%
    19:00 +29°C° 0.9 mm 2 mps 699 mmHg 69%
    20:00 +28°C° 0.9 mm 2 mps 699 mmHg 72%
    21:00 +27°C° 0.9 mm 1 mps 700 mmHg 76%
    22:00 +27°C° 0 mm 1 mps 700 mmHg 76%
    23:00 +26°C° 0 mm 1 mps 699 mmHg 77%

    24 January, Thursday

    Time Temperature Precipitation Wind Pressure Humidity
    00:00 +26°C° 0 mm 1 mps 699 mmHg 78%
    01:00 +26°C° 0 mm 1 mps 699 mmHg 78%
    02:00 +26°C° 0 mm 1 mps 698 mmHg 78%
    03:00 +25°C° 0 mm 1 mps 698 mmHg 78%
    04:00 +23°C° 0 mm 0 mps 698 mmHg 78%
    05:00 +23°C° 0 mm 0 mps 698 mmHg 78%
    06:00 +23°C° 0 mm 0 mps 698 mmHg 78%
    07:00 +25°C° 0 mm 0 mps 699 mmHg 71%
    08:00 +26°C° 0 mm 0 mps 700 mmHg 65%
    09:00 +28°C° 0 mm 0 mps 700 mmHg 58%
    10:00 +31°C° 0.8 mm 1 mps 700 mmHg 56%
    11:00 +32°C° 0.8 mm 1 mps 700 mmHg 54%
    12:00 +32°C° 0.8 mm 1 mps 700 mmHg 53%
    13:00 +32°C° 1.8 mm 2 mps 700 mmHg 54%
    14:00 +32°C° 1.8 mm 2 mps 699 mmHg 55%
    15:00 +32°C° 1.8 mm 2 mps 699 mmHg 56%
    16:00 +31°C° 1.3 mm 2 mps 699 mmHg 59%
    17:00 +30°C° 1.3 mm 3 mps 699 mmHg 63%
    18:00 +29°C° 1.3 mm 3 mps 699 mmHg 67%
    19:00 +28°C° 2.7 mm 3 mps 699 mmHg 69%
    20:00 +27°C° 2.7 mm 2 mps 700 mmHg 72%
    21:00 +26°C° 2.7 mm 2 mps 700 mmHg 75%
    22:00 +25°C° 0.1 mm 2 mps 700 mmHg 76%
    23:00 +25°C° 0.1 mm 1 mps 700 mmHg 77%

    25 January, Friday

    Time Temperature Precipitation Wind Pressure Humidity
    00:00 +25°C° 0.1 mm 1 mps 700 mmHg 78%
    01:00 +24°C° 0 mm 2 mps 699 mmHg 80%
    02:00 +24°C° 0 mm 2 mps 698 mmHg 82%
    03:00 +24°C° 0 mm 2 mps 698 mmHg 84%
    04:00 +23°C° 0 mm 2 mps 698 mmHg 85%
    05:00 +23°C° 0 mm 2 mps 698 mmHg 86%
    06:00 +23°C° 0 mm 2 mps 698 mmHg 87%
    07:00 +24°C° 0.7 mm 2 mps 699 mmHg 81%
    08:00 +26°C° 0.7 mm 2 mps 699 mmHg 75%
    09:00 +27°C° 0.7 mm 2 mps 699 mmHg 69%
    10:00 +28°C° 1.6 mm 2 mps 700 mmHg 64%
    11:00 +29°C° 1.6 mm 3 mps 700 mmHg 59%
    12:00 +30°C° 1.6 mm 3 mps 700 mmHg 54%
    13:00 +30°C° 0.9 mm 3 mps 699 mmHg 54%
    14:00 +30°C° 0.9 mm 3 mps 699 mmHg 55%
    15:00 +30°C° 0.9 mm 4 mps 698 mmHg 56%
    16:00 +29°C° 0.9 mm 4 mps 698 mmHg 60%
    17:00 +28°C° 0.9 mm 3 mps 698 mmHg 63%
    18:00 +27°C° 0.9 mm 3 mps 698 mmHg 66%
    19:00 +27°C° 0.8 mm 3 mps 699 mmHg 69%
    20:00 +26°C° 0.8 mm 2 mps 699 mmHg 72%
    21:00 +25°C° 0.8 mm 2 mps 700 mmHg 74%
    22:00 +24°C° 0 mm 2 mps 699 mmHg 75%
    23:00 +24°C° 0 mm 1 mps 699 mmHg 75%

    26 January, Saturday

    Time Temperature Precipitation Wind Pressure Humidity
    00:00 +24°C° 0 mm 1 mps 699 mmHg 75%
    01:00 +23°C° 0 mm 1 mps 698 mmHg 74%
    02:00 +23°C° 0 mm 1 mps 698 mmHg 74%
    03:00 +21°C° 0 mm 0 mps 698 mmHg 74%
    04:00 +23°C° 0 mm 1 mps 698 mmHg 74%
    05:00 +22°C° 0 mm 1 mps 698 mmHg 74%
    06:00 +21°C° 0 mm 2 mps 699 mmHg 74%
    07:00 +24°C° 0 mm 2 mps 699 mmHg 66%
    08:00 +25°C° 0 mm 2 mps 700 mmHg 58%
    09:00 +27°C° 0 mm 3 mps 700 mmHg 50%
    10:00 +29°C° 0.1 mm 3 mps 701 mmHg 46%
    11:00 +30°C° 0.1 mm 2 mps 701 mmHg 41%
    12:00 +32°C° 0.1 mm 2 mps 701 mmHg 36%
    13:00 +31°C° 0.2 mm 2 mps 700 mmHg 38%
    14:00 +31°C° 0.2 mm 2 mps 700 mmHg 40%
    15:00 +31°C° 0.2 mm 2 mps 699 mmHg 42%
    16:00 +30°C° 0.3 mm 2 mps 699 mmHg 46%
    17:00 +29°C° 0.3 mm 2 mps 699 mmHg 51%
    18:00 +28°C° 0.3 mm 2 mps 699 mmHg 56%
    19:00 +27°C° 0.2 mm 2 mps 700 mmHg 59%
    20:00 +26°C° 0.2 mm 1 mps 700 mmHg 62%
    21:00 +25°C° 0.2 mm 1 mps 700 mmHg 65%
    22:00 +25°C° 0 mm 1 mps 700 mmHg 63%
    23:00 +24°C° 0 mm 2 mps 700 mmHg 61%
    Show more